Le nostre stazioni meteo in Italia

Pubblicità
Il mio iltempo24.it
Lons-Le-Saunier, Francia (7390): Temperatura & dewpoint: 15.08.2019 14:00:00 - 21.08.2019 14:00:00 (CEST)Lons-Le-Saunier, Francia (7390): velocità del vento & gusts: 15.08.2019 14:00:00 - 21.08.2019 14:00:00 (CEST)Lons-Le-Saunier, Francia (7390): direzione del vento: 15.08.2019 14:00:00 - 21.08.2019 14:00:00 (CEST)Lons-Le-Saunier, Francia (7390): precipitazioni: 15.08.2019 14:00:00 - 21.08.2019 14:00:00 (CEST)
Data & Tempo tt [°C] td [°C] ff [km/h] ff [kn] fx [km/h] fx [kn] dd rr [mm]
21.08.2019 14:00:00 - - - - - - - -
21.08.2019 13:00:00 19,9 14,5 24 13 37 20 N 0,0
21.08.2019 12:00:00 18,5 14,0 21 11 31 17 N 0,0
21.08.2019 11:00:00 16,8 13,3 18 10 29 16 N 0,0
21.08.2019 10:00:00 14,8 12,7 15 8 24 13 N 0,0
21.08.2019 09:00:00 12,5 11,6 13 7 18 10 NO 0,0
21.08.2019 08:00:00 10,7 10,4 5 3 11 6 NNO -
21.08.2019 07:00:00 9,5 9,4 4 2 13 7 NO 0,0
21.08.2019 06:00:00 9,9 9,6 4 2 13 7 N 0,0
21.08.2019 05:00:00 10,2 9,7 8 4 13 7 N 0,0
21.08.2019 04:00:00 11,2 9,9 5 3 18 10 NE 0,0
21.08.2019 03:00:00 11,6 10,2 11 6 16 9 ENE 0,2
21.08.2019 02:00:00 11,9 10,6 8 4 15 8 NE -
21.08.2019 01:00:00 12,0 11,4 8 4 15 8 NNE 0,0
21.08.2019 00:00:00 12,5 12,2 8 4 11 6 E 0,0
20.08.2019 23:00:00 12,9 12,7 8 4 11 6 NE 0,0
20.08.2019 22:00:00 14,4 14,1 4 2 9 5 NE 0,0
20.08.2019 21:00:00 15,0 14,2 5 3 11 6 NE 0,0
20.08.2019 20:00:00 16,3 14,8 5 3 11 6 NNE -
20.08.2019 19:00:00 16,3 15,2 4 2 11 6 NE 0,0
20.08.2019 18:00:00 16,6 15,5 8 4 13 7 E 0,0
20.08.2019 17:00:00 16,1 15,6 8 4 11 6 NO 0,8
20.08.2019 16:00:00 16,7 16,1 8 4 15 8 NNO 1,0
20.08.2019 15:00:00 16,5 15,7 4 2 11 6 NNO 0,8
20.08.2019 14:00:00 16,5 15,5 4 2 11 6 NNO -
20.08.2019 13:00:00 - - - - - - - -
20.08.2019 12:00:00 16,3 15,3 4 2 11 6 NNO 0,2
20.08.2019 11:00:00 15,2 15,0 2 1 11 6 NNO 0,0
20.08.2019 10:00:00 14,9 14,9 8 4 11 6 SSE 0,0
20.08.2019 09:00:00 14,9 14,7 4 2 8 4 OSO 0,0
20.08.2019 08:00:00 14,5 14,3 2 1 8 4 SE -
20.08.2019 07:00:00 14,5 14,0 4 2 9 5 N 0,0
20.08.2019 06:00:00 15,2 13,9 8 4 16 9 N 0,0
20.08.2019 05:00:00 15,1 14,1 8 4 13 7 NE 0,0
20.08.2019 04:00:00 14,6 14,3 5 3 11 6 E 0,0
20.08.2019 03:00:00 14,3 14,0 5 3 15 8 E 0,0
20.08.2019 02:00:00 14,6 14,3 8 4 9 5 E -
20.08.2019 01:00:00 14,4 14,2 5 3 8 4 ENE 0,0
20.08.2019 00:00:00 14,8 14,5 5 3 8 4 SE 0,0
19.08.2019 23:00:00 15,7 15,5 4 2 13 7 SE 0,0
19.08.2019 22:00:00 16,4 15,8 5 3 9 5 SSO 0,0
19.08.2019 21:00:00 17,0 16,0 5 3 11 6 S 0,0
19.08.2019 20:00:00 18,1 16,6 4 2 13 7 S -
19.08.2019 19:00:00 18,5 16,5 8 4 9 5 S 0,0
19.08.2019 18:00:00 18,2 15,4 8 4 11 6 SSE 0,0
19.08.2019 17:00:00 17,8 13,9 5 3 11 6 S 0,0
19.08.2019 16:00:00 17,3 16,3 5 3 15 8 SSO 0,0
19.08.2019 15:00:00 16,1 14,8 9 5 16 9 SSO 0,4
19.08.2019 14:00:00 15,7 15,2 11 6 22 12 SO -
19.08.2019 13:00:00 16,4 15,8 11 6 18 10 SO 0,6
19.08.2019 12:00:00 16,9 16,3 13 7 18 10 SO 0,0
19.08.2019 11:00:00 16,9 16,4 9 5 18 10 SSO 0,2
19.08.2019 10:00:00 16,9 16,6 11 6 24 13 SO 1,0
19.08.2019 09:00:00 17,1 16,5 11 6 16 9 SO 0,2
19.08.2019 08:00:00 17,3 17,0 8 4 15 8 SO -
19.08.2019 07:00:00 17,4 17,1 9 5 15 8 SSO 0,2
19.08.2019 06:00:00 17,8 17,6 8 4 24 13 SO 0,6
19.08.2019 05:00:00 18,6 18,6 8 4 16 9 OSO 0,2
19.08.2019 04:00:00 18,9 18,9 13 7 24 13 SO 2,0
19.08.2019 03:00:00 19,3 19,3 9 5 15 8 SSE 3,0
19.08.2019 02:00:00 19,0 19,0 8 4 11 6 S -
19.08.2019 01:00:00 18,9 18,7 4 2 11 6 NNE 2,0
19.08.2019 00:00:00 18,9 18,6 4 2 41 22 NE 2,0
18.08.2019 23:00:00 19,2 18,9 9 5 24 13 NE 3,0
18.08.2019 22:00:00 20,0 19,5 8 4 26 14 NNE 1,0
18.08.2019 21:00:00 20,9 19,7 4 2 26 14 NO 0,2
18.08.2019 20:00:00 22,0 19,5 22 12 39 21 ONO -
18.08.2019 19:00:00 26,3 19,4 11 6 22 12 O 0,0
18.08.2019 18:00:00 28,7 19,9 9 5 34 18 SSO 0,0
18.08.2019 17:00:00 28,5 18,3 16 9 34 18 S 0,0
18.08.2019 16:00:00 29,5 19,5 18 10 37 20 SSO 0,0
18.08.2019 15:00:00 29,1 17,0 22 12 52 28 SSO 0,0
18.08.2019 14:00:00 28,2 17,1 35 19 63 34 SSO -
18.08.2019 13:00:00 27,3 16,3 29 16 59 32 SSO 0,0
18.08.2019 12:00:00 25,9 15,6 29 16 59 32 SO 0,0
18.08.2019 11:00:00 26,7 14,8 24 13 52 28 SSO 0,0
18.08.2019 10:00:00 25,2 14,3 26 14 44 24 SSO 0,0
18.08.2019 09:00:00 23,8 15,0 16 9 31 17 SSO 0,0
18.08.2019 08:00:00 23,0 12,9 9 5 24 13 S -
18.08.2019 07:00:00 23,1 11,2 16 9 34 18 S 0,0
18.08.2019 06:00:00 23,4 13,0 21 11 34 18 S 0,0
18.08.2019 05:00:00 22,6 13,1 13 7 26 14 S 0,0
18.08.2019 04:00:00 22,9 13,1 13 7 22 12 S 0,0
18.08.2019 03:00:00 22,7 14,3 11 6 16 9 S 0,0
18.08.2019 02:00:00 22,6 14,4 8 4 11 6 SSE -
18.08.2019 01:00:00 23,5 14,5 8 4 22 12 S 0,0
18.08.2019 00:00:00 24,0 14,4 15 8 22 12 OSO 0,0
17.08.2019 23:00:00 23,7 14,1 9 5 13 7 SE 0,0
17.08.2019 22:00:00 24,7 14,2 8 4 11 6 SE 0,0
17.08.2019 21:00:00 25,1 15,1 9 5 11 6 SSE 0,0
17.08.2019 20:00:00 26,5 14,3 8 4 13 7 S -
17.08.2019 19:00:00 26,6 15,9 8 4 13 7 SSE 0,0
17.08.2019 18:00:00 26,1 16,6 8 4 13 7 SE 0,0
17.08.2019 17:00:00 25,0 15,3 8 4 18 10 SSE 0,0
17.08.2019 16:00:00 25,0 14,8 11 6 34 18 S 0,0
17.08.2019 15:00:00 25,3 13,8 22 12 37 20 SO 0,0
17.08.2019 14:00:00 26,4 13,8 26 14 39 21 SO -
17.08.2019 13:00:00 25,8 15,5 15 8 26 14 SO 0,0
17.08.2019 12:00:00 24,7 15,1 5 3 16 9 SO 0,0
17.08.2019 11:00:00 23,4 15,7 9 5 18 10 SSO 0,0
17.08.2019 10:00:00 21,6 14,7 9 5 15 8 S 0,0
17.08.2019 09:00:00 19,6 13,5 5 3 9 5 SSE 0,0
17.08.2019 08:00:00 19,1 12,6 8 4 11 6 S -
17.08.2019 07:00:00 17,4 12,1 9 5 13 7 SE 0,0
17.08.2019 06:00:00 17,0 12,3 11 6 18 10 SSE 0,0
17.08.2019 05:00:00 16,6 12,7 9 5 16 9 SSO 0,0
17.08.2019 04:00:00 18,2 11,5 9 5 16 9 SE 0,0
17.08.2019 03:00:00 18,2 12,4 11 6 16 9 SE 0,0
17.08.2019 02:00:00 17,9 13,4 9 5 15 8 SE -
17.08.2019 01:00:00 18,3 13,6 9 5 15 8 SE 0,0
17.08.2019 00:00:00 18,4 13,5 9 5 13 7 SE 0,0
16.08.2019 23:00:00 18,2 13,1 8 4 13 7 ESE 0,0
16.08.2019 22:00:00 18,3 13,2 9 5 13 7 SE 0,0
16.08.2019 21:00:00 20,1 12,6 8 4 9 5 SE 0,0
16.08.2019 20:00:00 21,8 11,5 5 3 11 6 SO -
16.08.2019 19:00:00 23,4 12,4 9 5 15 8 SO 0,0
16.08.2019 18:00:00 24,8 13,4 8 4 15 8 OSO 0,0
16.08.2019 17:00:00 24,2 12,2 8 4 13 7 OSO 0,0
16.08.2019 16:00:00 23,8 13,1 5 3 16 9 SE 0,0
16.08.2019 15:00:00 23,5 12,8 11 6 21 11 NO 0,0
16.08.2019 14:00:00 22,6 11,9 11 6 22 12 NNO -
16.08.2019 13:00:00 22,2 13,8 9 5 18 10 NO 0,0
16.08.2019 12:00:00 22,0 14,1 5 3 13 7 N 0,0
16.08.2019 11:00:00 20,7 14,1 5 3 15 8 E 0,0
16.08.2019 10:00:00 18,5 13,8 9 5 15 8 NO 0,0
16.08.2019 09:00:00 18,6 13,2 2 1 13 7 E 0,0
16.08.2019 08:00:00 14,8 12,1 5 3 13 7 E -
16.08.2019 07:00:00 13,0 11,2 9 5 13 7 ESE 0,0
16.08.2019 06:00:00 13,2 11,3 8 4 9 5 ESE 0,0
16.08.2019 05:00:00 13,6 11,1 8 4 13 7 ESE 0,0
16.08.2019 04:00:00 14,2 11,4 8 4 11 6 SE 0,0
16.08.2019 03:00:00 14,7 11,8 9 5 11 6 SE 0,0
16.08.2019 02:00:00 15,0 12,1 9 5 11 6 SE -
16.08.2019 01:00:00 14,8 12,5 4 2 11 6 E 0,0
16.08.2019 00:00:00 15,8 12,4 8 4 11 6 SE 0,0
15.08.2019 23:00:00 16,4 12,6 8 4 11 6 SE 0,0
15.08.2019 22:00:00 18,0 12,0 4 2 9 5 S 0,0
15.08.2019 21:00:00 18,8 11,8 8 4 18 10 OSO 0,0
15.08.2019 20:00:00 20,8 12,2 13 7 18 10 O -
15.08.2019 19:00:00 21,2 12,1 11 6 22 12 O 0,0
15.08.2019 18:00:00 21,4 12,5 11 6 28 15 OSO 0,0
15.08.2019 17:00:00 21,9 13,8 15 8 37 20 OSO 0,0
15.08.2019 16:00:00 21,0 12,4 13 7 35 19 OSO 0,0
15.08.2019 15:00:00 20,9 17,1 13 7 24 13 SSO 0,0
15.08.2019 14:00:00 17,8 14,7 11 6 26 14 OSO -

tt = Temperatura
td = dewpoint
ff = velocità del vento
fx = gusts
dd = direzione del vento
rr = precipitazioni

Stazioni seguenti

WeatherPro
AMSI
MeteoEarth